Time,TemperatureF,DewpointF,PressureIn,WindDirection,WindDirectionDegrees,WindSpeedMPH,WindSpeedGustMPH,Humidity,HourlyPrecipIn,Conditions,Clouds,dailyrainin,SolarRadiationWatts/m^2,SoftwareType,DateUTC
2013-03-28 00:08:00,27.2,22.0,30.23,NNE,23,0.0,0.0,81,0.00,,,0.00,0,weatherlink.com 1.10,2013-03-28 04:08:00,
2013-03-28 00:23:00,26.9,21.0,30.22,NNE,23,0.0,2.0,78,0.00,,,0.00,0,weatherlink.com 1.10,2013-03-28 04:23:00,
2013-03-28 00:38:00,26.7,21.0,30.22,NNE,23,0.0,2.0,78,0.00,,,0.00,0,weatherlink.com 1.10,2013-03-28 04:38:00,
2013-03-28 00:53:00,26.8,21.0,30.23,NNE,23,2.0,2.0,79,0.00,,,0.00,0,weatherlink.com 1.10,2013-03-28 04:53:00,
2013-03-28 01:08:00,26.6,22.0,30.22,NNE,23,0.0,2.0,81,0.00,,,0.00,0,weatherlink.com 1.10,2013-03-28 05:08:00,
2013-03-28 01:23:00,26.7,21.0,30.22,NNE,23,0.0,1.0,79,0.00,,,0.00,0,weatherlink.com 1.10,2013-03-28 05:23:00,
2013-03-28 01:38:00,27.1,20.0,30.22,NNE,23,0.0,2.0,76,0.00,,,0.00,0,weatherlink.com 1.10,2013-03-28 05:38:00,
2013-03-28 01:55:00,27.5,20.0,30.22,NNE,23,0.0,1.0,74,0.00,,,0.00,0,weatherlink.com 1.10,2013-03-28 05:55:00,
2013-03-28 02:08:00,27.7,20.0,30.22,NNE,23,0.0,1.0,73,0.00,,,0.00,0,weatherlink.com 1.10,2013-03-28 06:08:00,
2013-03-28 02:23:00,28.1,21.0,30.22,NNE,23,0.0,0.0,74,0.00,,,0.00,0,weatherlink.com 1.10,2013-03-28 06:23:00,
2013-03-28 02:38:00,28.1,21.0,30.22,NNE,23,0.0,0.0,74,0.00,,,0.00,0,weatherlink.com 1.10,2013-03-28 06:38:00,
2013-03-28 02:53:00,28.5,21.0,30.22,NNE,23,0.0,0.0,72,0.00,,,0.00,0,weatherlink.com 1.10,2013-03-28 06:53:00,
2013-03-28 03:08:00,28.5,20.0,30.22,NNE,23,0.0,1.0,71,0.00,,,0.00,0,weatherlink.com 1.10,2013-03-28 07:08:00,
2013-03-28 03:23:00,28.4,20.0,30.22,NNE,23,0.0,0.0,71,0.00,,,0.00,0,weatherlink.com 1.10,2013-03-28 07:23:00,
2013-03-28 03:38:00,28.0,20.0,30.22,NNE,23,0.0,0.0,72,0.00,,,0.00,0,weatherlink.com 1.10,2013-03-28 07:38:00,
2013-03-28 03:53:00,27.8,20.0,30.22,NNE,23,0.0,2.0,72,0.00,,,0.00,0,weatherlink.com 1.10,2013-03-28 07:53:00,
2013-03-28 04:08:00,28.0,20.0,30.22,NNE,23,1.0,1.0,71,0.00,,,0.00,0,weatherlink.com 1.10,2013-03-28 08:08:00,
2013-03-28 04:23:00,28.3,20.0,30.22,NNE,23,0.0,2.0,70,0.00,,,0.00,0,weatherlink.com 1.10,2013-03-28 08:23:00,
2013-03-28 04:38:00,28.0,19.0,30.23,NNE,23,0.0,2.0,70,0.00,,,0.00,0,weatherlink.com 1.10,2013-03-28 08:38:00,
2013-03-28 04:53:00,27.7,19.0,30.22,NNE,23,0.0,2.0,71,0.00,,,0.00,0,weatherlink.com 1.10,2013-03-28 08:53:00,
2013-03-28 05:08:00,27.0,19.0,30.22,NNE,23,0.0,1.0,72,0.00,,,0.00,0,weatherlink.com 1.10,2013-03-28 09:08:00,
2013-03-28 05:23:00,26.3,19.0,30.22,NNE,23,0.0,1.0,75,0.00,,,0.00,0,weatherlink.com 1.10,2013-03-28 09:23:00,
2013-03-28 05:38:00,25.7,19.0,30.23,NNE,23,0.0,1.0,76,0.00,,,0.00,0,weatherlink.com 1.10,2013-03-28 09:38:00,
2013-03-28 05:54:00,25.2,19.0,30.23,NNE,23,0.0,0.0,77,0.00,,,0.00,0,weatherlink.com 1.10,2013-03-28 09:54:00,
2013-03-28 06:09:00,24.9,19.0,30.23,NNE,23,0.0,0.0,78,0.00,,,0.00,0,weatherlink.com 1.10,2013-03-28 10:09:00,
2013-03-28 06:24:00,24.8,19.0,30.23,NNE,23,0.0,1.0,78,0.00,,,0.00,0,weatherlink.com 1.10,2013-03-28 10:24:00,
2013-03-28 06:39:00,24.7,19.0,30.23,NNE,23,0.0,0.0,79,0.00,,,0.00,0,weatherlink.com 1.10,2013-03-28 10:39:00,
2013-03-28 06:54:00,24.2,19.0,30.23,NNE,23,0.0,1.0,80,0.00,,,0.00,0,weatherlink.com 1.10,2013-03-28 10:54:00,
2013-03-28 07:09:00,23.9,19.0,30.23,NNE,23,0.0,1.0,80,0.00,,,0.00,0,weatherlink.com 1.10,2013-03-28 11:09:00,
2013-03-28 07:39:00,23.6,19.0,30.24,NNE,23,0.0,1.0,81,0.00,,,0.00,7,weatherlink.com 1.10,2013-03-28 11:39:00,
2013-03-28 07:54:00,23.2,19.0,30.24,NNE,23,0.0,1.0,82,0.00,,,0.00,12,weatherlink.com 1.10,2013-03-28 11:54:00,
2013-03-28 08:09:00,23.4,19.0,30.24,NNE,23,0.0,1.0,82,0.00,,,0.00,25,weatherlink.com 1.10,2013-03-28 12:09:00,
2013-03-28 08:24:00,23.4,19.0,30.25,NNE,23,0.0,1.0,82,0.00,,,0.00,40,weatherlink.com 1.10,2013-03-28 12:24:00,
2013-03-28 08:39:00,24.4,20.0,30.25,NNE,23,0.0,1.0,82,0.00,,,0.00,63,weatherlink.com 1.10,2013-03-28 12:39:00,
2013-03-28 08:55:00,26.4,21.0,30.25,NNE,23,0.0,0.0,80,0.00,,,0.00,169,weatherlink.com 1.10,2013-03-28 12:55:00,
2013-03-28 09:09:00,29.8,23.0,30.26,NNE,23,1.0,1.0,77,0.00,,,0.00,246,weatherlink.com 1.10,2013-03-28 13:09:00,
2013-03-28 09:24:00,34.5,25.0,30.26,NNW,338,3.0,4.0,69,0.00,,,0.00,297,weatherlink.com 1.10,2013-03-28 13:24:00,
2013-03-28 09:39:00,37.2,26.0,30.25,NNW,337,0.0,2.0,65,0.00,,,0.00,206,weatherlink.com 1.10,2013-03-28 13:39:00,
2013-03-28 10:09:00,39.9,26.0,30.26,NNE,22,0.0,3.0,59,0.00,,,0.00,436,weatherlink.com 1.10,2013-03-28 14:09:00,
2013-03-28 10:24:00,40.9,26.0,30.26,NNE,22,2.0,5.0,56,0.00,,,0.00,302,weatherlink.com 1.10,2013-03-28 14:24:00,
2013-03-28 10:39:00,41.6,26.0,30.26,NW,325,2.0,4.0,54,0.00,,,0.00,373,weatherlink.com 1.10,2013-03-28 14:39:00,
2013-03-28 10:54:00,41.6,27.0,30.26,NE,53,6.0,9.0,56,0.00,,,0.00,408,weatherlink.com 1.10,2013-03-28 14:54:00,
2013-03-28 11:09:00,41.0,27.0,30.26,NE,38,5.0,8.0,57,0.00,,,0.00,464,weatherlink.com 1.10,2013-03-28 15:09:00,
2013-03-28 11:24:00,41.3,27.0,30.26,NNE,24,2.0,5.0,58,0.00,,,0.00,461,weatherlink.com 1.10,2013-03-28 15:24:00,
2013-03-28 11:39:00,41.2,28.0,30.27,NNE,22,0.0,5.0,59,0.00,,,0.00,381,weatherlink.com 1.10,2013-03-28 15:39:00,
2013-03-28 11:55:00,40.6,28.0,30.27,North,10,3.0,8.0,60,0.00,,,0.00,603,weatherlink.com 1.10,2013-03-28 15:55:00,
2013-03-28 12:25:00,41.2,29.0,30.27,North,360,1.0,9.0,62,0.00,,,0.00,728,weatherlink.com 1.10,2013-03-28 16:25:00,
2013-03-28 12:40:00,40.0,29.0,30.27,NE,42,5.0,9.0,66,0.00,,,0.00,751,weatherlink.com 1.10,2013-03-28 16:40:00,
2013-03-28 12:55:00,40.3,29.0,30.27,NE,38,4.0,6.0,65,0.00,,,0.00,766,weatherlink.com 1.10,2013-03-28 16:55:00,
2013-03-28 13:10:00,40.7,30.0,30.27,NE,38,4.0,8.0,65,0.00,,,0.00,777,weatherlink.com 1.10,2013-03-28 17:10:00,
2013-03-28 13:25:00,40.9,32.0,30.27,NE,55,3.0,8.0,71,0.00,,,0.00,788,weatherlink.com 1.10,2013-03-28 17:25:00,
2013-03-28 13:40:00,39.5,30.0,30.27,NE,54,5.0,7.0,68,0.00,,,0.00,791,weatherlink.com 1.10,2013-03-28 17:40:00,
2013-03-28 13:55:00,40.5,30.0,30.27,NNE,13,5.0,6.0,67,0.00,,,0.00,789,weatherlink.com 1.10,2013-03-28 17:55:00,
2013-03-28 14:10:00,39.5,30.0,30.27,NNW,336,1.0,8.0,70,0.00,,,0.00,786,weatherlink.com 1.10,2013-03-28 18:10:00,
2013-03-28 14:25:00,39.9,32.0,30.27,NNE,13,3.0,5.0,72,0.00,,,0.00,775,weatherlink.com 1.10,2013-03-28 18:25:00,
2013-03-28 14:40:00,40.7,31.0,30.26,NNE,22,1.0,7.0,69,0.00,,,0.00,765,weatherlink.com 1.10,2013-03-28 18:40:00,
2013-03-28 14:55:00,40.0,32.0,30.27,NNE,20,0.0,6.0,72,0.00,,,0.00,749,weatherlink.com 1.10,2013-03-28 18:55:00,
2013-03-28 15:10:00,40.0,32.0,30.27,NNW,335,3.0,7.0,73,0.00,,,0.00,731,weatherlink.com 1.10,2013-03-28 19:10:00,
2013-03-28 15:25:00,39.5,31.0,30.26,NE,40,7.0,8.0,72,0.00,,,0.00,712,weatherlink.com 1.10,2013-03-28 19:25:00,
2013-03-28 15:40:00,39.4,30.0,30.26,NE,56,2.0,8.0,69,0.00,,,0.00,684,weatherlink.com 1.10,2013-03-28 19:40:00,
2013-03-28 15:55:00,39.5,30.0,30.26,NE,44,2.0,7.0,68,0.00,,,0.00,661,weatherlink.com 1.10,2013-03-28 19:55:00,
2013-03-28 16:10:00,39.9,30.0,30.25,North,5,1.0,7.0,67,0.00,,,0.00,628,weatherlink.com 1.10,2013-03-28 20:10:00,
2013-03-28 16:25:00,40.5,29.0,30.25,NW,317,0.0,5.0,63,0.00,,,0.00,594,weatherlink.com 1.10,2013-03-28 20:25:00,
2013-03-28 16:40:00,41.2,29.0,30.25,NE,37,0.0,5.0,63,0.00,,,0.00,559,weatherlink.com 1.10,2013-03-28 20:40:00,
2013-03-28 16:55:00,41.0,29.0,30.24,NW,323,2.0,6.0,63,0.00,,,0.00,519,weatherlink.com 1.10,2013-03-28 20:55:00,
2013-03-28 17:10:00,41.0,30.0,30.24,NNE,12,1.0,4.0,64,0.00,,,0.00,473,weatherlink.com 1.10,2013-03-28 21:10:00,
2013-03-28 17:25:00,40.2,29.0,30.24,NW,319,5.0,5.0,65,0.00,,,0.00,408,weatherlink.com 1.10,2013-03-28 21:25:00,
2013-03-28 17:40:00,39.2,29.0,30.25,NNE,15,3.0,5.0,67,0.00,,,0.00,200,weatherlink.com 1.10,2013-03-28 21:40:00,
2013-03-28 17:55:00,38.3,29.0,30.25,NE,56,0.0,7.0,69,0.00,,,0.00,90,weatherlink.com 1.10,2013-03-28 21:55:00,
2013-03-28 18:10:00,37.9,27.0,30.25,North,9,2.0,8.0,65,0.00,,,0.00,84,weatherlink.com 1.10,2013-03-28 22:10:00,
2013-03-28 18:25:00,37.4,26.0,30.25,NE,42,0.0,5.0,63,0.00,,,0.00,39,weatherlink.com 1.10,2013-03-28 22:25:00,
2013-03-28 18:40:00,37.2,27.0,30.25,NE,50,0.0,5.0,66,0.00,,,0.00,40,weatherlink.com 1.10,2013-03-28 22:40:00,
2013-03-28 18:55:00,37.0,28.0,30.25,NE,42,1.0,5.0,69,0.00,,,0.00,35,weatherlink.com 1.10,2013-03-28 22:55:00,
2013-03-28 19:10:00,36.8,28.0,30.25,NE,50,2.0,3.0,70,0.00,,,0.00,26,weatherlink.com 1.10,2013-03-28 23:10:00,
2013-03-28 19:25:00,36.3,27.0,30.25,ENE,68,2.0,4.0,70,0.00,,,0.00,21,weatherlink.com 1.10,2013-03-28 23:25:00,
2013-03-28 19:40:00,35.9,27.0,30.25,NE,47,0.0,3.0,70,0.00,,,0.00,16,weatherlink.com 1.10,2013-03-28 23:40:00,
2013-03-28 19:55:00,35.5,27.0,30.25,NE,47,0.0,2.0,72,0.00,,,0.00,11,weatherlink.com 1.10,2013-03-28 23:55:00,
2013-03-28 20:10:00,34.6,27.0,30.25,NE,47,0.0,0.0,74,0.00,,,0.00,5,weatherlink.com 1.10,2013-03-29 00:10:00,
2013-03-28 20:25:00,33.5,27.0,30.25,NE,47,0.0,0.0,77,0.00,,,0.00,0,weatherlink.com 1.10,2013-03-29 00:25:00,
2013-03-28 20:40:00,32.3,26.0,30.25,NE,47,0.0,0.0,78,0.00,,,0.00,0,weatherlink.com 1.10,2013-03-29 00:40:00,
2013-03-28 20:55:00,31.2,26.0,30.25,NE,47,0.0,0.0,81,0.00,,,0.00,0,weatherlink.com 1.10,2013-03-29 00:55:00,
2013-03-28 21:10:00,30.7,26.0,30.25,NE,47,0.0,0.0,83,0.00,,,0.00,0,weatherlink.com 1.10,2013-03-29 01:10:00,
2013-03-28 21:25:00,30.0,25.0,30.25,NE,47,0.0,1.0,82,0.00,,,0.00,0,weatherlink.com 1.10,2013-03-29 01:25:00,
2013-03-28 21:40:00,29.1,25.0,30.26,NE,47,0.0,0.0,83,0.00,,,0.00,0,weatherlink.com 1.10,2013-03-29 01:40:00,
2013-03-28 21:55:00,28.4,25.0,30.26,NE,47,0.0,0.0,85,0.00,,,0.00,0,weatherlink.com 1.10,2013-03-29 01:55:00,
2013-03-28 22:10:00,28.6,25.0,30.26,NE,47,0.0,0.0,86,0.00,,,0.00,0,weatherlink.com 1.10,2013-03-29 02:10:00,
2013-03-28 22:25:00,28.4,25.0,30.25,NE,47,0.0,0.0,85,0.00,,,0.00,0,weatherlink.com 1.10,2013-03-29 02:25:00,
2013-03-28 22:40:00,27.7,24.0,30.26,NE,47,0.0,0.0,85,0.00,,,0.00,0,weatherlink.com 1.10,2013-03-29 02:40:00,
2013-03-28 22:55:00,27.2,24.0,30.25,NE,47,0.0,0.0,86,0.00,,,0.00,0,weatherlink.com 1.10,2013-03-29 02:55:00,
2013-03-28 23:10:00,26.9,24.0,30.25,NE,47,0.0,0.0,87,0.00,,,0.00,0,weatherlink.com 1.10,2013-03-29 03:10:00,
2013-03-28 23:25:00,26.9,24.0,30.25,NE,47,0.0,0.0,88,0.00,,,0.00,0,weatherlink.com 1.10,2013-03-29 03:25:00,
2013-03-28 23:40:00,26.6,23.0,30.25,NE,47,0.0,0.0,87,0.00,,,0.00,0,weatherlink.com 1.10,2013-03-29 03:40:00,
2013-03-28 23:55:00,26.3,23.0,30.25,NE,47,0.0,0.0,88,0.00,,,0.00,0,weatherlink.com 1.10,2013-03-29 03:55:00,